Hourly Data Report for August 19, 2000

SHERBROOKE A
QUEBEC

45°26'00.000" N
71°41'00.000" W
241.40 m
7028124
71610
YSC

Download Data

Hourly Data (August 2000)
Hourly Data Report for August 19, 2000
TIME
LST
Temp Definition
°C
Dew Point Definition
°C
Rel Hum Definition
%
Precip. Amount Definition
mm

Wind Dir Definition
10's deg

Wind Spd Definition
km/h
Visibility Definition
km
Stn Press Definition
kPa
Hmdx Definition


Wind Chill Definition


Weather Definition


00:00 13.0 12.4 96     0 15.0 98.49      
01:00 12.5 12.1 97     0 15.0 98.49      
02:00 12.0 11.7 98     0 15.0 98.49      
03:00 11.6 11.4 99     0 15.0 98.49      
04:00 11.4 11.3 99   25 4 11.3 98.52     Rain
05:00 11.4 11.3 99     0 15.0 98.59      
06:00 11.9 11.5 97   20 6 15.0 98.62      
07:00 12.7 12.2 97   20 6 19.3 98.65     Mostly Cloudy
08:00 13.8 13.2 96   24 4 16.1 98.65     Mostly Cloudy
09:00 16.3 13.3 82   21 9 24.1 98.65     Mainly Clear
10:00 18.1 11.6 66   25 6 24.1 98.65     Mainly Clear
11:00 19.3 10.2 56   27 7 24.1 98.65     Mainly Clear
12:00 18.4 9.6 56   27 6 24.1 98.65     Mostly Cloudy
13:00 20.2 10.2 53   28 11 24.1 98.62     Mostly Cloudy
14:00 20.6 10.7 53   29 9 24.1 98.62     Mainly Clear
15:00 18.7 10.4 58   27 17 24.1 98.62     Mostly Cloudy
16:00 18.3 10.9 62   25 9 24.1 98.65     Mostly Cloudy
17:00 18.1 10.3 60   25 17 15.0 98.69      
18:00 16.8 10.8 68   26 11 15.0 98.72      
19:00 15.5 10.9 74   30 15 15.0 98.79      
20:00 11.8 10.1 89   27 7 15.0 98.85      
21:00 12.7 11.5 92   28 9 15.0 98.92     Rain
22:00 10.9 10.4 97     0 15.0 98.88      
23:00 10.7 10.4 98   23 7 15.0 98.92      

Notes on Data Quality.

Legend

  • E = Estimated
  • M = Missing
  • NA = Not Available*
  • [empty] = Indicates an unobserved value
Date modified: